| time (UTC) | temp F | wind direction | speed MPH | gust MPH | rain 1hr in | rain 24hr in | rain mn in | humidity % | barometer mb |
| 20260904050542 | 52 | 182 | 0.0 | 0.0 | 0.04 | 0.33 | 0.33 | 96 | 1010.1 |
| 20260904050044 | 52 | 182 | 0.0 | 1.0 | 0.04 | 0.32 | 0.33 | 96 | 1010.1 |
| 20260904045807 | 52 | 182 | 1.0 | 3.0 | 0.05 | 0.32 | 0.32 | 96 | 1010.1 |
| 20260904045040 | 52 | 184 | 1.0 | 3.0 | 0.06 | 0.32 | 0.32 | 96 | 1010.1 |
| 20260904044538 | 52 | 200 | 0.0 | 3.0 | 0.08 | 0.32 | 0.32 | 96 | 1010.0 |
| 20260904044038 | 52 | 208 | 0.0 | 1.0 | 0.08 | 0.32 | 0.32 | 96 | 1010.1 |
| 20260904043536 | 52 | 208 | 0.0 | 1.0 | 0.09 | 0.32 | 0.32 | 96 | 1010.1 |
| 20260904043036 | 52 | 208 | 0.0 | 4.0 | 0.09 | 0.32 | 0.32 | 96 | 1010.1 |
| 20260904042535 | 52 | 207 | 1.0 | 4.0 | 0.09 | 0.32 | 0.32 | 96 | 1010.1 |
| 20260904042301 | 52 | 231 | 1.0 | 7.0 | 0.08 | 0.31 | 0.31 | 96 | 1010.1 |
| 20260904041531 | 52 | 147 | 1.0 | 7.0 | 0.07 | 0.30 | 0.31 | 96 | 1010.1 |
| 20260904041030 | 52 | 213 | 1.0 | 5.0 | 0.07 | 0.30 | 0.30 | 96 | 1010.1 |
| 20260904040529 | 52 | 124 | 1.0 | 6.0 | 0.06 | 0.29 | 0.29 | 96 | 1010.1 |
| 20260904040303 | 52 | 217 | 1.0 | 6.0 | 0.05 | 0.28 | 0.28 | 96 | 1010.0 |
| 20260904035530 | 52 | 160 | 1.0 | 3.0 | 0.04 | 0.27 | 0.27 | 96 | 1010.1 |
| 20260904035252 | 52 | 225 | 1.0 | 3.0 | 0.03 | 0.26 | 0.26 | 96 | 1010.1 |
| 20260904034518 | 53 | 197 | 0.0 | 2.0 | 0.01 | 0.24 | 0.25 | 96 | 1010.1 |
| 20260904034012 | 53 | 178 | 0.0 | 6.0 | 0.01 | 0.24 | 0.24 | 96 | 1010.0 |
| 20260904033506 | 53 | 182 | 0.0 | 6.0 | 0.00 | 0.23 | 0.23 | 96 | 1010.0 |
| 20260904032457 | 53 | 205 | 0.0 | 2.0 | 0.00 | 0.23 | 0.23 | 96 | 1009.7 |
| 20260904031946 | 53 | 205 | 0.0 | 3.0 | 0.00 | 0.23 | 0.23 | 96 | 1009.7 |
| 20260904031440 | 53 | 161 | 1.0 | 3.0 | 0.00 | 0.23 | 0.23 | 96 | 1009.5 |
| 20260904030938 | 53 | 177 | 1.0 | 3.0 | 0.00 | 0.23 | 0.23 | 95 | 1009.4 |
| 20260904030925 | 53 | 184 | 0.0 | 3.0 | 0.00 | 0.23 | 0.23 | 95 | 1009.4 |
| 20260904025924 | 53 | 111 | 0.0 | 2.0 | 0.00 | 0.23 | 0.23 | 95 | 1009.4 |
| 20260904025420 | 53 | 80 | 0.0 | 3.0 | 0.00 | 0.23 | 0.23 | 95 | 1009.4 |
| 20260904025132 | 53 | 162 | 1.0 | 3.0 | 0.00 | 0.23 | 0.23 | 95 | 1009.3 |
| 20260904024405 | 54 | 203 | 1.0 | 3.0 | 0.00 | 0.23 | 0.23 | 95 | 1009.3 |
| 20260904023903 | 54 | 236 | 0.0 | 2.0 | 0.00 | 0.23 | 0.23 | 95 | 1009.4 |
| 20260904023351 | 54 | 239 | 0.0 | 2.0 | 0.00 | 0.23 | 0.23 | 95 | 1009.4 |
| 20260904022849 | 54 | 323 | 0.0 | 0.0 | 0.00 | 0.23 | 0.23 | 95 | 1009.4 |
| 20260904022343 | 54 | 323 | 0.0 | 0.0 | 0.00 | 0.23 | 0.23 | 95 | 1009.3 |
| 20260904021836 | 54 | 324 | 0.0 | 0.0 | 0.00 | 0.23 | 0.23 | 95 | 1009.3 |
| 20260904021330 | 55 | 324 | 0.0 | 0.0 | 0.00 | 0.24 | 0.23 | 95 | 1009.2 |
| 20260904021044 | 55 | 324 | 0.0 | 0.0 | 0.00 | 0.25 | 0.23 | 95 | 1009.1 |
| 20260904020319 | 55 | 324 | 0.0 | 0.0 | 0.01 | 0.27 | 0.23 | 95 | 1009.1 |
| 20260904015816 | 55 | 324 | 0.0 | 0.0 | 0.01 | 0.28 | 0.23 | 95 | 1009.1 |
| 20260904015532 | 55 | 324 | 0.0 | 0.0 | 0.02 | 0.29 | 0.23 | 95 | 1009.1 |
| 20260904014807 | 55 | 324 | 0.0 | 0.0 | 0.03 | 0.32 | 0.23 | 95 | 1009.1 |
| 20260904014307 | 55 | 324 | 0.0 | 1.0 | 0.05 | 0.34 | 0.23 | 95 | 1009.2 |
| 20260904013807 | 55 | 324 | 0.0 | 1.0 | 0.07 | 0.34 | 0.23 | 95 | 1009.1 |
| 20260904013306 | 55 | 324 | 0.0 | 0.0 | 0.08 | 0.35 | 0.23 | 95 | 1009.1 |
| 20260904012803 | 55 | 324 | 0.0 | 1.0 | 0.08 | 0.36 | 0.23 | 95 | 1009.1 |
| 20260904012300 | 56 | 324 | 0.0 | 1.0 | 0.09 | 0.37 | 0.23 | 95 | 1009.1 |
| 20260904011801 | 56 | 324 | 0.0 | 0.0 | 0.09 | 0.37 | 0.23 | 95 | 1009.1 |
| 20260904011300 | 56 | 244 | 0.0 | 1.0 | 0.09 | 0.37 | 0.23 | 95 | 1009.0 |
| 20260904010759 | 56 | 243 | 0.0 | 1.0 | 0.10 | 0.37 | 0.23 | 94 | 1009.0 |
| 20260904010306 | 56 | 243 | 0.0 | 0.0 | 0.09 | 0.36 | 0.22 | 94 | 1009.1 |
| 20260904005804 | 56 | 243 | 0.0 | 0.0 | 0.10 | 0.36 | 0.22 | 94 | 1009.1 |
| 20260904005257 | 56 | 243 | 0.0 | 0.0 | 0.11 | 0.35 | 0.22 | 94 | 1009.2 |
| 20260904004754 | 56 | 243 | 0.0 | 0.0 | 0.11 | 0.34 | 0.20 | 94 | 1009.2 |
| 20260904004254 | 56 | 243 | 0.0 | 0.0 | 0.10 | 0.32 | 0.18 | 94 | 1009.2 |
| 20260904003753 | 56 | 243 | 0.0 | 0.0 | 0.09 | 0.30 | 0.16 | 93 | 1009.2 |
| 20260904003251 | 56 | 243 | 0.0 | 0.0 | 0.09 | 0.29 | 0.16 | 93 | 1009.1 |
| 20260904003016 | 56 | 243 | 0.0 | 0.0 | 0.10 | 0.29 | 0.15 | 93 | 1009.1 |
| 20260904002252 | 56 | 243 | 0.0 | 0.0 | 0.10 | 0.28 | 0.14 | 92 | 1009.2 |
| 20260904001745 | 57 | 243 | 0.0 | 0.0 | 0.10 | 0.28 | 0.14 | 92 | 1009.2 |
| 20260904001238 | 57 | 243 | 0.0 | 0.0 | 0.10 | 0.27 | 0.14 | 91 | 1009.3 |
| 20260904000733 | 57 | 243 | 0.0 | 1.0 | 0.10 | 0.27 | 0.13 | 91 | 1009.2 |
| 20260904000228 | 58 | 243 | 0.0 | 1.0 | 0.10 | 0.27 | 0.13 | 91 | 1009.2 |
| 20260903235727 | 58 | 243 | 0.0 | 2.0 | 0.09 | 0.26 | 0.12 | 89 | 1009.1 |
| 20260903235225 | 59 | 238 | 0.0 | 2.0 | 0.07 | 0.24 | 0.11 | 89 | 1009.1 |
| 20260903234727 | 59 | 266 | 0.0 | 2.0 | 0.06 | 0.24 | 0.09 | 89 | 1009.1 |
| 20260903234223 | 59 | 140 | 0.0 | 0.0 | 0.05 | 0.23 | 0.08 | 88 | 1009.1 |
| 20260903233724 | 60 | 140 | 0.0 | 0.0 | 0.04 | 0.23 | 0.07 | 87 | 1009.0 |
| 20260903233243 | 61 | 140 | 0.0 | 1.0 | 0.02 | 0.23 | 0.06 | 85 | 1008.9 |
| 20260903233225 | 60 | 140 | 0.0 | 1.0 | 0.03 | 0.23 | 0.06 | 86 | 1008.9 |
| 20260903232235 | 61 | 140 | 0.0 | 1.0 | 0.01 | 0.23 | 0.05 | 85 | 1008.8 |
| 20260903231735 | 61 | 140 | 0.0 | 2.0 | 0.01 | 0.24 | 0.04 | 84 | 1008.7 |
| 20260903231233 | 62 | 140 | 0.0 | 3.0 | 0.00 | 0.23 | 0.03 | 80 | 1008.6 |
| 20260903230728 | 62 | 92 | 1.0 | 4.0 | 0.00 | 0.24 | 0.03 | 84 | 1008.5 |
| 20260903230229 | 62 | 132 | 1.0 | 4.0 | 0.00 | 0.24 | 0.03 | 76 | 1008.4 |
| 20260903225730 | 62 | 91 | 1.0 | 6.0 | 0.00 | 0.25 | 0.03 | 80 | 1008.4 |
| 20260903225223 | 62 | 88 | 1.0 | 6.0 | 0.00 | 0.25 | 0.03 | 74 | 1008.4 |
| 20260903224724 | 62 | 53 | 1.0 | 9.0 | 0.00 | 0.25 | 0.03 | 79 | 1008.4 |
| 20260903224225 | 62 | 74 | 2.0 | 9.0 | 0.00 | 0.26 | 0.03 | 77 | 1008.3 |
| 20260903223728 | 62 | 71 | 1.0 | 5.0 | 0.00 | 0.26 | 0.03 | 82 | 1008.3 |
| 20260903223224 | 62 | 169 | 1.0 | 5.0 | 0.00 | 0.27 | 0.03 | 77 | 1008.2 |
| 20260903222724 | 62 | 115 | 1.0 | 3.0 | 0.00 | 0.27 | 0.03 | 84 | 1008.2 |
| 20260903222223 | 61 | 325 | 1.0 | 3.0 | 0.00 | 0.27 | 0.03 | 85 | 1008.3 |
| 20260903221724 | 62 | 107 | 1.0 | 5.0 | 0.00 | 0.27 | 0.03 | 87 | 1008.4 |
| 20260903221232 | 62 | 5 | 0.0 | 1.0 | 0.00 | 0.27 | 0.03 | 86 | 1008.3 |
| 20260903221222 | 62 | 146 | 1.0 | 5.0 | 0.00 | 0.27 | 0.03 | 85 | 1008.4 |
| 20260903220221 | 62 | 5 | 0.0 | 1.0 | 0.00 | 0.27 | 0.03 | 86 | 1008.2 |
| 20260903215721 | 62 | 5 | 0.0 | 1.0 | 0.00 | 0.27 | 0.03 | 89 | 1008.2 |
| 20260903215222 | 62 | 5 | 0.0 | 1.0 | 0.00 | 0.27 | 0.03 | 88 | 1008.2 |
| 20260903214950 | 62 | 5 | 0.0 | 1.0 | 0.01 | 0.27 | 0.03 | 87 | 1008.2 |
| 20260903214226 | 61 | 5 | 0.0 | 2.0 | 0.01 | 0.27 | 0.03 | 86 | 1008.2 |
| 20260903213722 | 61 | 0 | 0.0 | 2.0 | 0.01 | 0.27 | 0.03 | 83 | 1008.3 |
| 20260903213220 | 61 | 286 | 0.0 | 2.0 | 0.01 | 0.27 | 0.03 | 89 | 1008.3 |
| 20260903212721 | 61 | 227 | 0.0 | 1.0 | 0.01 | 0.27 | 0.03 | 93 | 1008.4 |
| 20260903212220 | 60 | 169 | 0.0 | 1.0 | 0.01 | 0.27 | 0.03 | 92 | 1008.3 |
| 20260903211719 | 60 | 169 | 0.0 | 1.0 | 0.01 | 0.27 | 0.03 | 92 | 1008.3 |
| 20260903211220 | 60 | 169 | 0.0 | 0.0 | 0.01 | 0.27 | 0.03 | 92 | 1008.3 |
| 20260903210714 | 60 | 169 | 0.0 | 1.0 | 0.01 | 0.27 | 0.03 | 92 | 1008.3 |
| 20260903210208 | 60 | 169 | 0.0 | 1.0 | 0.01 | 0.27 | 0.03 | 90 | 1008.3 |
| 20260903205702 | 60 | 169 | 0.0 | 1.0 | 0.01 | 0.27 | 0.03 | 91 | 1008.3 |
| 20260903205155 | 60 | 197 | 0.0 | 2.0 | 0.01 | 0.27 | 0.03 | 92 | 1008.3 |
| 20260903204650 | 60 | 197 | 0.0 | 2.0 | 0.00 | 0.26 | 0.02 | 92 | 1008.3 |
| 20260903204144 | 60 | 186 | 0.0 | 2.0 | 0.00 | 0.26 | 0.02 | 92 | 1008.2 |
| 20260903203639 | 60 | 155 | 0.0 | 1.0 | 0.00 | 0.26 | 0.02 | 92 | 1008.2 |
| 20260903203132 | 60 | 155 | 0.0 | 1.0 | 0.00 | 0.26 | 0.02 | 92 | 1008.2 |
| 20260903202852 | 60 | 155 | 0.0 | 1.0 | 0.00 | 0.26 | 0.02 | 92 | 1008.2 |
| 20260903202120 | 60 | 155 | 0.0 | 1.0 | 0.00 | 0.26 | 0.02 | 90 | 1008.1 |
| 20260903201615 | 60 | 155 | 0.0 | 0.0 | 0.00 | 0.26 | 0.02 | 90 | 1008.1 |
| 20260903201108 | 61 | 155 | 0.0 | 0.0 | 0.00 | 0.26 | 0.02 | 89 | 1008.2 |
| 20260903200601 | 61 | 155 | 0.0 | 1.0 | 0.00 | 0.26 | 0.02 | 89 | 1008.2 |
| 20260903200056 | 61 | 155 | 0.0 | 1.0 | 0.00 | 0.26 | 0.02 | 87 | 1008.2 |
| 20260903195822 | 62 | 155 | 1.0 | 3.0 | 0.00 | 0.26 | 0.02 | 85 | 1008.2 |
| 20260903195044 | 62 | 169 | 1.0 | 3.0 | 0.00 | 0.26 | 0.02 | 81 | 1008.2 |
| 20260903194538 | 61 | 188 | 0.0 | 2.0 | 0.00 | 0.26 | 0.02 | 82 | 1008.2 |
| 20260903194032 | 61 | 207 | 0.0 | 2.0 | 0.00 | 0.26 | 0.02 | 80 | 1008.2 |
| 20260903193527 | 61 | 50 | 0.0 | 2.0 | 0.00 | 0.26 | 0.02 | 84 | 1008.1 |
| 20260903193513 | 61 | 12 | 0.0 | 2.0 | 0.00 | 0.26 | 0.02 | 87 | 1008.1 |
| 20260903192514 | 61 | 323 | 0.0 | 2.0 | 0.00 | 0.26 | 0.02 | 79 | 1008.1 |
| 20260903192008 | 61 | 63 | 0.0 | 1.0 | 0.00 | 0.26 | 0.02 | 88 | 1008.0 |
| 20260903191503 | 61 | 63 | 0.0 | 2.0 | 0.00 | 0.26 | 0.02 | 85 | 1008.1 |
| 20260903190956 | 61 | 63 | 0.0 | 2.0 | 0.00 | 0.26 | 0.02 | 83 | 1008.1 |
| 20260903190451 | 60 | 14 | 0.0 | 1.0 | 0.00 | 0.26 | 0.02 | 87 | 1008.1 |
| 20260903185945 | 60 | 13 | 0.0 | 3.0 | 0.00 | 0.26 | 0.02 | 86 | 1008.1 |
| 20260903185439 | 60 | 9 | 0.0 | 3.0 | 0.00 | 0.26 | 0.02 | 82 | 1008.1 |
| 20260903184932 | 60 | 219 | 0.0 | 1.0 | 0.00 | 0.26 | 0.02 | 88 | 1008.1 |
| 20260903184426 | 59 | 119 | 0.0 | 1.0 | 0.00 | 0.26 | 0.02 | 89 | 1008.0 |
| 20260903183919 | 59 | 119 | 0.0 | 1.0 | 0.00 | 0.26 | 0.02 | 89 | 1008.0 |
| 20260903183643 | 59 | 119 | 0.0 | 1.0 | 0.00 | 0.26 | 0.02 | 91 | 1008.0 |
| 20260903182908 | 58 | 119 | 0.0 | 1.0 | 0.00 | 0.26 | 0.02 | 88 | 1008.0 |
| 20260903182402 | 58 | 154 | 0.0 | 2.0 | 0.00 | 0.26 | 0.02 | 94 | 1008.1 |
| 20260903182121 | 58 | 154 | 0.0 | 2.0 | 0.00 | 0.26 | 0.02 | 95 | 1008.0 |
| 20260903181605 | 58 | 154 | 0.0 | 2.0 | 0.00 | 0.26 | 0.02 | 96 | 1008.1 |
| 20260903180841 | 57 | 236 | 0.0 | 0.0 | 0.00 | 0.26 | 0.02 | 96 | 1008.1 |
| 20260903180334 | 57 | 236 | 0.0 | 0.0 | 0.00 | 0.26 | 0.02 | 95 | 1008.1 |
| 20260903175828 | 56 | 245 | 0.0 | 0.0 | 0.00 | 0.26 | 0.02 | 97 | 1008.1 |
| 20260903175322 | 56 | 245 | 0.0 | 0.0 | 0.00 | 0.26 | 0.02 | 97 | 1008.1 |
| 20260903174818 | 56 | 245 | 0.0 | 0.0 | 0.00 | 0.26 | 0.02 | 97 | 1008.1 |
| 20260903174310 | 56 | 245 | 0.0 | 0.0 | 0.00 | 0.26 | 0.02 | 97 | 1008.1 |
| 20260903173804 | 56 | 245 | 0.0 | 0.0 | 0.00 | 0.26 | 0.02 | 97 | 1008.1 |
| 20260903173258 | 56 | 245 | 0.0 | 0.0 | 0.00 | 0.26 | 0.02 | 97 | 1008.1 |
| 20260903172754 | 56 | 245 | 0.0 | 1.0 | 0.00 | 0.26 | 0.02 | 98 | 1008.1 |
| 20260903172247 | 55 | 245 | 0.0 | 1.0 | 0.00 | 0.26 | 0.02 | 98 | 1008.0 |
| 20260903171747 | 55 | 245 | 0.0 | 0.0 | 0.00 | 0.26 | 0.02 | 98 | 1008.0 |
| 20260903171249 | 55 | 245 | 0.0 | 0.0 | 0.00 | 0.26 | 0.02 | 97 | 1008.0 |
| 20260903170746 | 55 | 245 | 0.0 | 1.0 | 0.00 | 0.26 | 0.02 | 98 | 1008.0 |
| 20260903170245 | 55 | 245 | 0.0 | 1.0 | 0.00 | 0.26 | 0.02 | 98 | 1008.0 |
| 20260903170012 | 55 | 246 | 0.0 | 0.0 | 0.00 | 0.26 | 0.02 | 98 | 1008.1 |
| 20260903165245 | 54 | 246 | 0.0 | 0.0 | 0.00 | 0.26 | 0.02 | 98 | 1008.1 |
| 20260903164746 | 54 | 245 | 0.0 | 0.0 | 0.00 | 0.26 | 0.02 | 98 | 1008.2 |
| 20260903164246 | 54 | 245 | 0.0 | 0.0 | 0.00 | 0.26 | 0.02 | 98 | 1008.2 |
| 20260903163754 | 54 | 245 | 0.0 | 0.0 | 0.00 | 0.26 | 0.02 | 97 | 1008.2 |
| 20260903163459 | 53 | 245 | 0.0 | 0.0 | 0.00 | 0.26 | 0.02 | 98 | 1008.3 |
| 20260903163345 | 54 | 245 | 0.0 | 0.0 | 0.00 | 0.26 | 0.02 | 97 | 1008.3 |
| 20260903162245 | 53 | 245 | 0.0 | 0.0 | 0.00 | 0.26 | 0.02 | 98 | 1008.4 |
| 20260903161742 | 53 | 245 | 0.0 | 0.0 | 0.00 | 0.26 | 0.02 | 98 | 1008.4 |
| 20260903161237 | 53 | 245 | 0.0 | 0.0 | 0.00 | 0.26 | 0.02 | 98 | 1008.5 |
| 20260903160739 | 53 | 245 | 0.0 | 0.0 | 0.00 | 0.26 | 0.02 | 98 | 1008.5 |
| 20260903160238 | 53 | 245 | 0.0 | 0.0 | 0.00 | 0.26 | 0.02 | 98 | 1008.5 |
| 20260903155740 | 53 | 245 | 0.0 | 0.0 | 0.00 | 0.26 | 0.02 | 98 | 1008.5 |
| 20260903155235 | 53 | 245 | 0.0 | 0.0 | 0.00 | 0.26 | 0.02 | 98 | 1008.6 |
| 20260903154734 | 53 | 245 | 0.0 | 0.0 | 0.00 | 0.26 | 0.02 | 98 | 1008.6 |
| 20260903154233 | 53 | 245 | 0.0 | 1.0 | 0.00 | 0.26 | 0.02 | 98 | 1008.5 |
| 20260903153736 | 52 | 245 | 0.0 | 1.0 | 0.00 | 0.26 | 0.02 | 97 | 1008.5 |
| 20260903153234 | 52 | 240 | 0.0 | 0.0 | 0.00 | 0.26 | 0.02 | 98 | 1008.5 |
| 20260903152733 | 52 | 240 | 0.0 | 0.0 | 0.00 | 0.26 | 0.02 | 98 | 1008.5 |
| 20260903152459 | 52 | 240 | 0.0 | 0.0 | 0.00 | 0.26 | 0.02 | 98 | 1008.5 |
| 20260903151732 | 52 | 240 | 0.0 | 0.0 | 0.00 | 0.26 | 0.02 | 97 | 1008.5 |
| 20260903151229 | 51 | 240 | 0.0 | 0.0 | 0.00 | 0.26 | 0.02 | 97 | 1008.5 |
| 20260903150729 | 51 | 236 | 0.0 | 0.0 | 0.00 | 0.26 | 0.02 | 98 | 1008.4 |
| 20260903150228 | 51 | 236 | 0.0 | 0.0 | 0.00 | 0.26 | 0.02 | 98 | 1008.4 |
| 20260903145731 | 51 | 236 | 0.0 | 0.0 | 0.00 | 0.26 | 0.02 | 97 | 1008.4 |
| 20260903145227 | 51 | 236 | 0.0 | 1.0 | 0.00 | 0.26 | 0.02 | 97 | 1008.4 |
| 20260903144727 | 51 | 236 | 0.0 | 1.0 | 0.00 | 0.26 | 0.02 | 97 | 1008.4 |
| 20260903144229 | 51 | 236 | 0.0 | 1.0 | 0.00 | 0.26 | 0.02 | 98 | 1008.3 |
| 20260903143728 | 51 | 236 | 0.0 | 2.0 | 0.00 | 0.26 | 0.02 | 97 | 1008.3 |
| 20260903143226 | 50 | 236 | 0.0 | 2.0 | 0.00 | 0.26 | 0.02 | 97 | 1008.3 |
| 20260903142724 | 50 | 240 | 0.0 | 1.0 | 0.00 | 0.26 | 0.02 | 97 | 1008.2 |
| 20260903142232 | 50 | 240 | 0.0 | 0.0 | 0.00 | 0.26 | 0.02 | 97 | 1008.2 |
| 20260903141724 | 50 | 240 | 0.0 | 0.0 | 0.00 | 0.26 | 0.02 | 97 | 1008.2 |
| 20260903141223 | 50 | 240 | 0.0 | 3.0 | 0.00 | 0.26 | 0.02 | 97 | 1008.2 |
| 20260903140725 | 50 | 240 | 0.0 | 3.0 | 0.00 | 0.26 | 0.02 | 97 | 1008.2 |
| 20260903140218 | 50 | 194 | 0.0 | 3.0 | 0.00 | 0.26 | 0.02 | 97 | 1008.1 |
| 20260903135711 | 50 | 236 | 0.0 | 3.0 | 0.00 | 0.26 | 0.02 | 97 | 1008.1 |
| 20260903135206 | 49 | 200 | 0.0 | 3.0 | 0.01 | 0.26 | 0.02 | 97 | 1008.1 |
| 20260903134659 | 49 | 200 | 0.0 | 3.0 | 0.01 | 0.26 | 0.02 | 97 | 1008.1 |
| 20260903134152 | 49 | 211 | 0.0 | 2.0 | 0.01 | 0.26 | 0.02 | 97 | 1008.0 |
| 20260903133648 | 49 | 198 | 0.0 | 1.0 | 0.01 | 0.26 | 0.02 | 97 | 1008.1 |
| 20260903133141 | 49 | 202 | 0.0 | 3.0 | 0.01 | 0.26 | 0.02 | 97 | 1008.1 |
| 20260903132129 | 49 | 210 | 2.0 | 5.0 | 0.01 | 0.26 | 0.02 | 97 | 1008.1 |
| 20260903131625 | 49 | 190 | 2.0 | 5.0 | 0.01 | 0.26 | 0.02 | 97 | 1007.9 |
| 20260903131117 | 49 | 214 | 1.0 | 4.0 | 0.01 | 0.26 | 0.02 | 97 | 1007.8 |
| 20260903130611 | 49 | 184 | 1.0 | 5.0 | 0.01 | 0.26 | 0.02 | 97 | 1007.8 |
| 20260903130333 | 49 | 193 | 1.0 | 5.0 | 0.01 | 0.26 | 0.02 | 97 | 1007.9 |
| 20260903125600 | 49 | 211 | 1.0 | 3.0 | 0.01 | 0.26 | 0.02 | 97 | 1007.8 |
| 20260903125053 | 49 | 163 | 1.0 | 5.0 | 0.00 | 0.25 | 0.01 | 97 | 1007.8 |
| 20260903124809 | 49 | 190 | 1.0 | 5.0 | 0.00 | 0.25 | 0.01 | 97 | 1007.9 |
| 20260903124041 | 49 | 217 | 1.0 | 3.0 | 0.00 | 0.25 | 0.01 | 97 | 1007.9 |
| 20260903123535 | 49 | 209 | 0.0 | 2.0 | 0.00 | 0.25 | 0.01 | 97 | 1007.8 |
| 20260903123036 | 49 | 197 | 0.0 | 1.0 | 0.00 | 0.25 | 0.01 | 97 | 1007.8 |
| 20260903122523 | 49 | 213 | 0.0 | 1.0 | 0.00 | 0.25 | 0.01 | 97 | 1007.8 |
| 20260903122017 | 49 | 219 | 0.0 | 1.0 | 0.00 | 0.25 | 0.01 | 97 | 1007.9 |
| 20260903121517 | 49 | 219 | 0.0 | 2.0 | 0.00 | 0.25 | 0.01 | 97 | 1007.9 |
| 20260903121007 | 49 | 219 | 0.0 | 2.0 | 0.00 | 0.25 | 0.01 | 97 | 1007.9 |
| 20260903120459 | 49 | 196 | 1.0 | 3.0 | 0.00 | 0.25 | 0.01 | 97 | 1007.8 |
| 20260903115953 | 49 | 207 | 0.0 | 3.0 | 0.00 | 0.25 | 0.01 | 97 | 1007.8 |
| 20260903115447 | 49 | 196 | 1.0 | 4.0 | 0.00 | 0.25 | 0.01 | 97 | 1007.8 |
| 20260903114942 | 49 | 188 | 1.0 | 4.0 | 0.00 | 0.25 | 0.01 | 97 | 1007.7 |
| 20260903114435 | 49 | 214 | 1.0 | 3.0 | 0.00 | 0.25 | 0.01 | 97 | 1007.8 |
| 20260903114322 | 49 | 219 | 0.0 | 2.0 | 0.00 | 0.25 | 0.01 | 97 | 1007.8 |
| 20260903114306 | 49 | 167 | 1.0 | 2.0 | 0.00 | 0.25 | 0.01 | 97 | 1007.8 |
| 20260903112917 | 49 | 194 | 0.0 | 2.0 | 0.00 | 0.25 | 0.01 | 97 | 1007.8 |
| 20260903112412 | 49 | 189 | 0.0 | 2.0 | 0.00 | 0.25 | 0.01 | 97 | 1007.8 |
| 20260903111905 | 49 | 206 | 0.0 | 1.0 | 0.00 | 0.25 | 0.01 | 97 | 1007.7 |
| 20260903111400 | 49 | 206 | 0.0 | 1.0 | 0.00 | 0.26 | 0.01 | 97 | 1007.7 |
| 20260903110853 | 49 | 206 | 0.0 | 1.0 | 0.00 | 0.26 | 0.01 | 97 | 1007.5 |
| 20260903110349 | 49 | 212 | 0.0 | 2.0 | 0.00 | 0.27 | 0.01 | 97 | 1007.6 |
| 20260903110101 | 49 | 212 | 0.0 | 2.0 | 0.00 | 0.28 | 0.01 | 97 | 1007.6 |
| 20260903105600 | 49 | 212 | 0.0 | 2.0 | 0.00 | 0.29 | 0.01 | 97 | 1007.7 |
| 20260903104830 | 49 | 196 | 0.0 | 2.0 | 0.00 | 0.30 | 0.01 | 97 | 1007.7 |
| 20260903104330 | 49 | 197 | 0.0 | 2.0 | 0.00 | 0.31 | 0.01 | 97 | 1007.6 |
| 20260903104108 | 49 | 201 | 0.0 | 1.0 | 0.00 | 0.32 | 0.01 | 97 | 1007.5 |
| 20260903103327 | 49 | 201 | 0.0 | 3.0 | 0.00 | 0.32 | 0.01 | 97 | 1007.5 |
| 20260903102827 | 49 | 209 | 0.0 | 3.0 | 0.00 | 0.32 | 0.01 | 97 | 1007.6 |
| 20260903102600 | 49 | 196 | 0.0 | 3.0 | 0.00 | 0.32 | 0.01 | 97 | 1007.7 |
| 20260903101827 | 49 | 203 | 1.0 | 3.0 | 0.00 | 0.32 | 0.01 | 97 | 1007.7 |
| 20260903101324 | 49 | 191 | 1.0 | 4.0 | 0.00 | 0.32 | 0.01 | 97 | 1007.6 |
| 20260903101043 | 49 | 228 | 1.0 | 4.0 | 0.00 | 0.32 | 0.01 | 97 | 1007.6 |
| 20260903100326 | 49 | 176 | 1.0 | 4.0 | 0.00 | 0.32 | 0.01 | 97 | 1007.6 |
| 20260903100322 | 49 | 217 | 1.0 | 4.0 | 0.00 | 0.32 | 0.01 | 97 | 1007.6 |
| 20260903095324 | 49 | 222 | 1.0 | 4.0 | 0.00 | 0.32 | 0.01 | 96 | 1007.7 |
| 20260903094824 | 49 | 184 | 0.0 | 2.0 | 0.00 | 0.32 | 0.01 | 97 | 1007.7 |
| 20260903094325 | 49 | 197 | 0.0 | 2.0 | 0.00 | 0.33 | 0.01 | 97 | 1007.6 |
| 20260903094302 | 49 | 215 | 0.0 | 2.0 | 0.00 | 0.33 | 0.01 | 97 | 1007.6 |
| 20260903093322 | 49 | 215 | 1.0 | 3.0 | 0.00 | 0.34 | 0.01 | 97 | 1007.7 |
| 20260903092822 | 49 | 205 | 0.0 | 3.0 | 0.00 | 0.35 | 0.01 | 96 | 1007.7 |
| 20260903092319 | 49 | 207 | 0.0 | 1.0 | 0.00 | 0.35 | 0.01 | 96 | 1007.6 |
| 20260903091818 | 49 | 207 | 0.0 | 3.0 | 0.00 | 0.35 | 0.01 | 96 | 1007.5 |
| 20260903091318 | 50 | 208 | 0.0 | 3.0 | 0.00 | 0.35 | 0.01 | 97 | 1007.5 |
| 20260903091050 | 50 | 192 | 0.0 | 2.0 | 0.00 | 0.35 | 0.01 | 97 | 1007.4 |
| 20260903090319 | 50 | 192 | 0.0 | 2.0 | 0.00 | 0.35 | 0.01 | 97 | 1007.4 |
| 20260903085818 | 50 | 193 | 1.0 | 3.0 | 0.01 | 0.35 | 0.01 | 97 | 1007.4 |
| 20260903085320 | 50 | 170 | 1.0 | 3.0 | 0.01 | 0.35 | 0.01 | 97 | 1007.5 |
| 20260903084818 | 50 | 189 | 1.0 | 3.0 | 0.01 | 0.35 | 0.01 | 97 | 1007.5 |
| 20260903084319 | 50 | 188 | 1.0 | 3.0 | 0.01 | 0.35 | 0.01 | 97 | 1007.4 |
| 20260903083819 | 50 | 212 | 0.0 | 2.0 | 0.01 | 0.35 | 0.01 | 97 | 1007.4 |
| 20260903083321 | 50 | 200 | 0.0 | 3.0 | 0.01 | 0.35 | 0.01 | 96 | 1007.4 |
| 20260903082818 | 50 | 209 | 0.0 | 3.0 | 0.01 | 0.35 | 0.01 | 97 | 1007.4 |
| 20260903082319 | 50 | 198 | 1.0 | 3.0 | 0.01 | 0.35 | 0.01 | 97 | 1007.4 |
| 20260903081819 | 50 | 198 | 1.0 | 3.0 | 0.01 | 0.35 | 0.01 | 96 | 1007.5 |
| 20260903081321 | 50 | 219 | 1.0 | 3.0 | 0.01 | 0.35 | 0.01 | 96 | 1007.4 |
| 20260903080822 | 50 | 206 | 2.0 | 4.0 | 0.01 | 0.35 | 0.01 | 96 | 1007.5 |
| 20260903080550 | 50 | 208 | 2.0 | 4.0 | 0.01 | 0.35 | 0.01 | 96 | 1007.4 |
| 20260903075822 | 50 | 214 | 1.0 | 4.0 | 0.00 | 0.34 | 0.00 | 96 | 1007.4 |
| 20260903075542 | 50 | 178 | 1.0 | 3.0 | 0.00 | 0.34 | 0.00 | 96 | 1007.4 |
| 20260903074812 | 50 | 221 | 1.0 | 3.0 | 0.00 | 0.34 | 0.00 | 96 | 1007.4 |
| 20260903074529 | 50 | 180 | 1.0 | 3.0 | 0.00 | 0.34 | 0.00 | 96 | 1007.4 |
| 20260903073756 | 50 | 211 | 0.0 | 3.0 | 0.00 | 0.34 | 0.00 | 96 | 1007.3 |
| 20260903073247 | 51 | 180 | 0.0 | 2.0 | 0.00 | 0.34 | 0.00 | 96 | 1007.3 |
| 20260903072750 | 51 | 237 | 0.0 | 1.0 | 0.00 | 0.34 | 0.00 | 96 | 1007.2 |
| 20260903072244 | 51 | 237 | 0.0 | 1.0 | 0.00 | 0.34 | 0.00 | 96 | 1007.2 |
| 20260903071740 | 51 | 237 | 1.0 | 3.0 | 0.00 | 0.34 | 0.00 | 96 | 1007.2 |
| 20260903071232 | 51 | 237 | 1.0 | 3.0 | 0.00 | 0.34 | 0.00 | 97 | 1007.2 |
| 20260903070726 | 51 | 191 | 0.0 | 1.0 | 0.00 | 0.34 | 0.00 | 96 | 1007.1 |
| 20260903070438 | 51 | 191 | 0.0 | 2.0 | 0.00 | 0.34 | 0.00 | 96 | 1007.2 |
| 20260903065939 | 51 | 191 | 0.0 | 2.0 | 0.00 | 0.34 | 0.34 | 96 | 1007.3 |
| 20260903065205 | 51 | 192 | 0.0 | 2.0 | 0.00 | 0.34 | 0.34 | 96 | 1007.3 |
| 20260903064924 | 51 | 192 | 0.0 | 3.0 | 0.00 | 0.34 | 0.34 | 96 | 1007.2 |
| 20260903064156 | 51 | 205 | 1.0 | 3.0 | 0.00 | 0.34 | 0.34 | 96 | 1007.2 |
| 20260903063652 | 51 | 210 | 0.0 | 2.0 | 0.00 | 0.34 | 0.34 | 96 | 1007.2 |
| 20260903063144 | 51 | 218 | 0.0 | 2.0 | 0.00 | 0.34 | 0.34 | 96 | 1007.2 |
| 20260903062903 | 51 | 218 | 0.0 | 1.0 | 0.00 | 0.34 | 0.34 | 96 | 1007.2 |
| 20260903062132 | 51 | 218 | 0.0 | 1.0 | 0.00 | 0.34 | 0.34 | 96 | 1007.2 |
| 20260903061627 | 51 | 218 | 0.0 | 0.0 | 0.00 | 0.34 | 0.34 | 96 | 1007.3 |
| 20260903061120 | 51 | 218 | 0.0 | 1.0 | 0.00 | 0.34 | 0.34 | 96 | 1007.2 |
| 20260903060613 | 51 | 218 | 0.0 | 2.0 | 0.00 | 0.34 | 0.34 | 96 | 1007.2 |
| 20260903060107 | 52 | 218 | 0.0 | 2.0 | 0.00 | 0.34 | 0.34 | 96 | 1007.1 |
| 20260903060052 | 52 | 221 | 0.0 | 4.0 | 0.00 | 0.34 | 0.34 | 96 | 1007.1 |
| 20260903055055 | 52 | 219 | 0.0 | 4.0 | 0.00 | 0.34 | 0.34 | 96 | 1007.2 |
| 20260903054550 | 52 | 228 | 0.0 | 1.0 | 0.00 | 0.34 | 0.34 | 96 | 1007.1 |
| 20260903054044 | 52 | 228 | 0.0 | 2.0 | 0.00 | 0.34 | 0.34 | 96 | 1007.1 |
| 20260903053540 | 52 | 228 | 0.0 | 2.0 | 0.00 | 0.34 | 0.34 | 96 | 1007.1 |
| 20260903053250 | 52 | 230 | 0.0 | 2.0 | 0.00 | 0.34 | 0.34 | 96 | 1007.1 |
| 20260903052748 | 52 | 231 | 0.0 | 3.0 | 0.00 | 0.34 | 0.34 | 96 | 1007.2 |
| 20260903052020 | 52 | 231 | 0.0 | 3.0 | 0.00 | 0.34 | 0.34 | 96 | 1007.2 |
| 20260903051517 | 52 | 193 | 0.0 | 2.0 | 0.00 | 0.34 | 0.34 | 96 | 1007.1 |
| 20260903051009 | 53 | 193 | 0.0 | 2.0 | 0.00 | 0.34 | 0.34 | 96 | 1007.1 |